Location: Sternwarte_Laufen
(47.9344°N, 12.9346°E)
Time: 16:44:26
(UTC+02:00)

ISS - Pass Details

Date: 15 May 2026
Orbit: 414 x 424 km, 51.6° (Epoch: 21 May)

Event Time Altitude Azimuth Distance (km) Brightness Sun altitude
Rises 23:21:59 0° 290° (WNW) 2,354 0.8 -19.2°
Reaches altitude 10° 23:24:06 10° 295° (WNW) 1,491 -0.3 -19.3°
Maximum altitude 23:27:24 57° 15° (NNE) 497 -3.2 -19.6°
Enters shadow 23:28:15 41° 69° (ENE) 615 -3.0 -19.6°
